GW0785 Weather Reports


time (UTC)temp
C
wind
direction
speed
KPH
gust
KPH
rain 1hr
cm
rain 24hr
cm
rain mn
cm
humidity
%
barometer
mb
20260508175708 13 225 12.9 25.7 0.00 0.00 0.00 32 996.9
20260508175158 14 293 8.0 27.4 0.00 0.00 0.00 32 996.8
20260508173628 13 158 12.9 25.7 0.00 0.00 0.00 33 996.9
20260508173118 14 158 9.7 25.7 0.00 0.00 0.00 34 996.9
20260508172608 13 203 12.9 25.7 0.00 0.00 0.00 35 996.9
20260508172057 14 270 8.0 29.0 0.00 0.00 0.00 35 996.6
20260508171547 13 225 12.9 29.0 0.00 0.00 0.00 34 996.9
20260508170527 13 293 9.7 29.0 0.00 0.00 0.00 34 996.9
20260508170017 13 180 14.5 25.7 0.00 0.00 0.00 36 997.0
20260508165507 13 270 12.9 29.0 0.00 0.00 0.00 37 996.9
20260508164957 13 270 9.7 35.4 0.00 0.00 0.00 35 997.1
20260508164447 13 203 17.7 35.4 0.00 0.00 0.00 36 997.1
20260508163937 13 270 12.9 32.2 0.00 0.00 0.00 36 997.1
20260508163427 13 293 12.9 32.2 0.00 0.00 0.00 38 997.3
20260508161856 13 248 17.7 35.4 0.00 0.00 0.00 37 997.3
20260508161346 13 248 12.9 27.4 0.00 0.00 0.00 39 997.2
20260508160835 12 248 12.9 33.8 0.00 0.00 0.00 40 997.4
20260508160325 12 248 8.0 33.8 0.00 0.00 0.00 40 997.4
20260508155815 12 270 14.5 29.0 0.00 0.00 0.00 40 997.6
20260508155306 12 293 11.3 29.0 0.00 0.00 0.00 41 997.7
20260508154756 12 338 9.7 27.4 0.00 0.00 0.00 42 997.6
20260508154245 12 68 9.7 22.5 0.00 0.00 0.00 42 997.7
20260508153736 12 338 9.7 33.8 0.00 0.00 0.00 44 997.8
20260508152714 11 180 16.1 33.8 0.00 0.00 0.00 44 997.8
20260508152204 12 203 12.9 24.1 0.00 0.00 0.00 45 998.1
20260508151654 12 248 12.9 27.4 0.00 0.00 0.00 44 998.2
20260508151144 12 248 14.5 27.4 0.00 0.00 0.00 44 998.0
20260508150634 11 270 12.9 27.4 0.00 0.00 0.00 45 998.4
20260508150124 11 248 17.7 32.2 0.00 0.00 0.00 45 998.1
20260508145614 11 248 17.7 32.2 0.00 0.00 0.00 45 998.2
20260508144554 11 270 12.9 27.4 0.00 0.00 0.00 47 998.1
20260508143533 11 270 12.9 33.8 0.00 0.00 0.00 47 998.2
20260508142514 10 248 14.5 38.6 0.00 0.00 0.00 47 998.2
20260508142004 10 270 14.5 33.8 0.00 0.00 0.00 48 998.0
20260508140942 10 270 9.7 32.2 0.00 0.00 0.00 49 998.1
20260508140434 10 270 16.1 32.2 0.00 0.00 0.00 49 997.9
20260508135923 10 270 12.9 29.0 0.00 0.00 0.00 48 998.0
20260508135413 10 270 16.1 33.8 0.00 0.00 0.00 49 998.0
20260508134903 10 248 12.9 37.0 0.00 0.00 0.00 49 998.2
20260508134353 10 270 22.5 37.0 0.00 0.00 0.00 49 998.3
20260508133842 10 270 12.9 27.4 0.00 0.00 0.00 49 998.1
20260508133332 10 225 12.9 27.4 0.00 0.00 0.00 49 997.9
20260508132312 10 135 9.7 37.0 0.00 0.00 0.00 50 997.8
20260508131802 9 248 17.7 37.0 0.00 0.00 0.00 50 998.1
20260508131251 9 203 12.9 29.0 0.00 0.00 0.00 51 997.7
20260508130742 9 203 17.7 29.0 0.00 0.00 0.00 50 997.9
20260508125724 9 203 17.7 29.0 0.00 0.00 0.00 51 997.6
20260508125211 9 248 12.9 27.4 0.00 0.00 0.00 52 997.6
20260508124701 9 293 16.1 25.7 0.00 0.00 0.00 53 997.8
20260508123643 8 180 12.9 35.4 0.00 0.00 0.00 55 997.6
20260508122621 8 270 12.9 29.0 0.00 0.00 0.00 56 997.7
20260508122111 8 180 11.3 27.4 0.00 0.00 0.00 57 997.7
20260508121600 8 203 6.4 27.4 0.00 0.00 0.00 58 997.6
20260508121051 7 225 6.4 22.5 0.00 0.00 0.00 59 997.7
20260508120540 7 248 12.9 22.5 0.00 0.00 0.00 60 997.7
20260508120030 7 225 6.4 22.5 0.00 0.00 0.00 60 997.4
20260508115520 7 248 6.4 33.8 0.00 0.00 0.00 60 997.7
20260508114500 7 135 9.7 25.7 0.00 0.00 0.00 60 997.3
20260508113950 7 293 8.0 25.7 0.00 0.00 0.00 60 997.4
20260508113440 7 225 9.7 17.7 0.00 0.00 0.00 60 997.2
20260508112930 7 203 6.4 24.1 0.00 0.00 0.00 61 997.2
20260508112419 7 248 8.0 24.1 0.00 0.00 0.00 61 997.4
20260508111909 7 180 8.0 20.9 0.00 0.00 0.00 62 997.1
20260508111359 7 203 8.0 20.9 0.00 0.00 0.00 63 997.2
20260508110849 7 315 6.4 20.9 0.00 0.00 0.00 63 997.0
20260508110339 7 225 9.7 20.9 0.00 0.00 0.00 62 997.1
20260508105829 7 225 9.7 17.7 0.00 0.00 0.00 63 996.9
20260508105320 7 225 9.7 20.9 0.00 0.00 0.00 63 996.9
20260508104810 7 225 4.8 20.9 0.00 0.00 0.00 63 996.9
20260508104258 7 158 9.7 20.9 0.00 0.00 0.00 62 996.6
20260508103748 7 225 9.7 20.9 0.00 0.00 0.00 62 997.1
20260508102218 7 225 11.3 22.5 0.00 0.00 0.00 61 997.2
20260508101158 7 158 11.3 24.1 0.00 0.00 0.00 61 997.0
20260508100648 7 248 12.9 20.9 0.00 0.00 0.00 60 996.7
20260508095628 7 68 8.0 20.9 0.00 0.00 0.00 61 996.7
20260508095119 7 248 6.4 17.7 0.00 0.00 0.00 62 996.8
20260508093547 7 270 6.4 20.9 0.00 0.00 0.00 62 996.3
20260508093039 7 270 9.7 20.9 0.00 0.00 0.00 61 996.2
20260508092017 7 203 11.3 25.7 0.00 0.00 0.00 62 996.1
20260508091516 6 158 6.4 17.7 0.00 0.00 0.00 62 995.9
20260508090956 6 270 6.4 17.7 0.00 0.00 0.00 63 996.1
20260508090446 6 248 6.4 17.7 0.00 0.00 0.00 62 996.1
20260508085937 6 270 8.0 17.7 0.00 0.00 0.00 62 995.8
20260508085426 6 225 6.4 17.7 0.00 0.00 0.00 62 996.0
20260508084917 6 203 9.7 22.5 0.00 0.00 0.00 61 996.1
20260508084406 6 180 9.7 22.5 0.00 0.00 0.00 61 996.0
20260508083856 6 225 8.0 24.1 0.00 0.00 0.00 61 995.9
20260508083346 6 203 6.4 24.1 0.00 0.00 0.00 61 995.9
20260508082836 6 270 9.7 17.7 0.00 0.00 0.00 61 995.9
20260508081815 6 293 6.4 17.7 0.00 0.00 0.00 61 996.0
20260508081305 6 248 6.4 17.7 0.00 0.00 0.00 61 995.9
20260508080245 6 203 6.4 17.7 0.00 0.00 0.00 60 995.7
20260508075736 6 270 6.4 22.5 0.00 0.00 0.00 60 995.7
20260508075224 6 248 11.3 24.1 0.00 0.00 0.00 60 995.6
20260508074714 6 203 8.0 24.1 0.00 0.00 0.00 60 995.8
20260508074204 6 270 11.3 17.7 0.00 0.00 0.00 60 995.7
20260508073655 6 248 6.4 20.9 0.00 0.00 0.00 60 995.8
20260508072635 6 270 8.0 17.7 0.00 0.00 0.00 60 995.7
20260508072124 6 248 8.0 20.9 0.00 0.00 0.00 59 995.7
20260508071614 6 293 6.4 20.9 0.00 0.00 0.00 59 995.9
20260508071104 6 293 6.4 12.9 0.00 0.00 0.00 58 995.8
20260508070553 6 248 4.8 0.0 0.00 0.00 0.00 58 996.0
20260508065550 7 225 6.4 17.7 0.00 0.00 0.00 56 996.0
20260508065031 7 180 6.4 17.7 0.00 0.00 0.00 56 995.7
20260508064521 7 225 6.4 17.7 0.00 0.00 0.00 57 995.9
20260508064011 7 293 4.8 17.7 0.00 0.00 0.00 56 995.9
20260508063501 7 225 6.4 17.7 0.00 0.00 0.00 56 995.8
20260508062950 7 293 11.3 17.7 0.00 0.00 0.00 56 995.9
20260508062440 7 248 6.4 20.9 0.00 0.00 0.00 56 995.9
20260508061930 7 225 11.3 22.5 0.00 0.00 0.00 56 996.0
20260508061419 7 315 9.7 22.5 0.00 0.00 0.00 56 996.2
20260508060400 7 270 6.4 22.5 0.00 0.00 0.00 59 996.0
20260508055850 7 180 9.7 22.5 0.00 0.00 0.00 59 996.1
20260508054829 7 225 4.8 17.7 0.00 0.00 0.00 62 996.4
20260508054320 7 248 9.7 17.7 0.00 0.00 0.00 63 996.3
20260508053808 7 203 6.4 17.7 0.00 0.00 0.00 64 996.3
20260508053258 7 248 9.7 17.7 0.00 0.00 0.00 66 996.5
20260508052748 7 225 4.8 17.7 0.00 0.00 0.00 67 996.4
20260508052238 7 180 4.8 14.5 0.00 0.00 0.00 68 996.4
20260508051730 7 270 6.4 14.5 0.00 0.00 0.00 69 996.7
20260508051219 7 158 4.8 17.7 0.00 0.00 0.00 69 996.5
20260508050708 7 203 8.0 20.9 0.00 0.00 0.00 70 996.7
20260508050158 8 203 9.7 20.9 0.00 0.00 0.00 70 996.7
20260508045138 8 203 8.0 17.7 0.00 0.00 0.00 70 996.6
20260508044628 8 225 8.0 17.7 0.00 0.00 0.00 70 996.5
20260508044117 8 203 8.0 24.1 0.00 0.00 0.00 69 996.6
20260508043607 8 203 8.0 24.1 0.00 0.00 0.00 70 996.3
20260508043107 8 248 8.0 24.1 0.00 0.00 0.00 71 996.1
20260508042548 8 270 12.9 24.1 0.00 0.00 0.00 71 996.3
20260508042037 8 203 11.3 22.5 0.00 0.00 0.00 72 996.1
20260508041016 8 203 4.8 17.7 0.00 0.00 0.00 74 996.1
20260508040507 8 203 8.0 17.7 0.00 0.00 0.00 76 996.2
20260508035956 8 225 6.4 17.7 0.00 0.00 0.00 77 996.2
20260508035447 8 203 3.2 14.5 0.00 0.00 0.00 78 996.2
20260508034937 8 248 6.4 14.5 0.00 0.00 0.00 79 996.0
20260508034426 8 225 6.4 12.9 0.00 0.00 0.00 79 995.8
20260508033916 8 225 4.8 17.7 0.00 0.00 0.00 78 995.9
20260508032856 9 248 3.2 12.9 0.00 0.00 0.00 77 995.7
20260508031836 9 315 4.8 17.7 0.00 0.00 0.00 78 995.7
20260508031326 9 315 3.2 14.5 0.00 0.00 0.00 78 995.5
20260508030816 9 248 3.2 11.3 0.00 0.00 0.00 78 995.7
20260508030306 9 180 4.8 11.3 0.00 0.00 0.00 79 995.7
20260508025755 9 248 3.2 9.7 0.00 0.00 0.76 78 995.3
20260508025245 10 248 4.8 11.3 0.00 0.00 0.76 78 995.6
20260508024735 10 203 3.2 11.3 0.00 0.00 0.76 77 995.6
20260508024225 10 293 6.4 11.3 0.00 0.00 0.76 77 995.9
20260508023715 10 203 3.2 14.5 0.00 0.00 0.76 76 995.8
20260508023205 10 248 3.2 14.5 0.00 0.00 0.76 75 995.6
20260508022655 10 158 6.4 12.9 0.00 0.00 0.76 74 995.5
20260508022145 11 225 4.8 20.9 0.00 0.00 0.76 74 995.4
20260508021635 11 203 6.4 20.9 0.00 0.00 0.76 74 995.6
20260508021124 11 225 9.7 12.9 0.00 0.00 0.76 74 995.7
20260508020620 11 293 6.4 12.9 0.00 0.00 0.76 74 995.6
20260508020105 11 225 4.8 14.5 0.00 0.00 0.76 74 995.5
20260508015554 11 225 4.8 14.5 0.00 0.00 0.76 73 995.7
20260508015044 11 225 3.2 17.7 0.00 0.00 0.76 73 995.7
20260508014534 11 248 6.4 17.7 0.00 0.00 0.76 72 995.7
20260508014024 11 225 6.4 14.5 0.00 0.00 0.76 72 995.9
20260508013003 11 225 6.4 17.7 0.00 0.00 0.76 71 995.7
20260508012454 11 203 6.4 14.5 0.00 0.00 0.76 72 995.8
20260508011944 11 270 6.4 14.5 0.00 0.00 0.76 71 995.7
20260508011434 11 158 6.4 20.9 0.00 0.00 0.76 72 995.9
20260508010923 11 293 6.4 20.9 0.00 0.00 0.76 72 995.8
20260508010413 11 225 6.4 17.7 0.00 0.00 0.76 72 995.9
20260508005903 11 293 8.0 17.7 0.00 0.00 0.76 72 996.2
20260508005353 11 225 6.4 17.7 0.00 0.00 0.76 72 996.1
20260508004843 11 158 6.4 17.7 0.00 0.00 0.76 73 996.4
20260508004332 11 225 6.4 17.7 0.00 0.00 0.76 73 996.5
20260508003822 11 225 8.0 17.7 0.00 0.00 0.76 72 996.4
20260508003312 11 248 8.0 22.5 0.00 0.00 0.76 72 996.3
20260508002252 11 270 8.0 25.7 0.00 0.00 0.76 73 996.2
20260508000722 11 203 11.3 32.2 0.00 0.00 0.76 71 996.4
20260508000212 12 225 14.5 32.2 0.00 0.00 0.76 71 996.4
20260507235702 12 315 9.7 24.1 0.00 0.00 0.76 69 996.3
20260507235151 12 203 9.7 22.5 0.00 0.00 0.76 69 996.3
20260507234642 12 225 12.9 25.7 0.00 0.00 0.76 69 996.4
20260507234131 12 270 12.9 25.7 0.00 0.00 0.76 68 996.2
20260507233621 12 203 16.1 25.7 0.00 0.00 0.76 68 996.3
20260507232601 12 225 11.3 29.0 0.00 0.00 0.76 68 996.4
20260507231541 12 180 12.9 27.4 0.00 0.00 0.76 67 996.1
20260507231031 12 270 11.3 24.1 0.00 0.00 0.76 67 996.1
20260507230521 12 225 12.9 24.1 0.00 0.00 0.76 66 996.1
20260507230014 12 180 8.0 22.5 0.00 0.00 0.76 67 995.9
20260507225500 13 270 11.3 22.5 0.00 0.00 0.76 67 996.1
20260507224950 13 203 11.3 20.9 0.00 0.00 0.76 66 995.8
20260507224440 13 180 11.3 27.4 0.00 0.00 0.76 66 995.6
20260507223930 13 248 12.9 27.4 0.00 0.00 0.76 65 995.5
20260507223420 13 293 11.3 27.4 0.00 0.00 0.76 65 995.6
20260507222909 13 270 12.9 24.1 0.00 0.00 0.76 65 995.3
20260507222359 13 270 11.3 24.1 0.00 0.00 0.76 65 995.0
20260507221339 13 270 6.4 17.7 0.00 0.00 0.76 66 994.7
20260507220318 13 270 9.7 24.1 0.00 0.00 0.76 64 994.4
20260507215809 13 158 8.0 24.1 0.00 0.00 0.76 64 994.2
20260507215300 13 270 9.7 17.7 0.00 0.00 0.76 64 993.9
20260507214749 13 248 6.4 20.9 0.00 0.00 0.76 65 994.3
20260507214239 13 248 12.9 20.9 0.00 0.00 0.76 64 994.1
20260507213729 13 248 6.4 25.7 0.00 0.00 0.76 65 993.8
20260507213218 13 225 12.9 25.7 0.00 0.00 0.76 64 993.6
20260507212708 13 270 6.4 17.7 0.00 0.00 0.76 64 993.4
20260507212158 13 270 14.5 24.1 0.00 0.00 0.76 64 993.6
20260507211647 13 293 12.9 24.1 0.00 0.00 0.76 64 994.0
20260507211139 13 225 11.3 24.1 0.00 0.00 0.76 64 993.9
20260507205608 13 248 8.0 22.5 0.00 0.00 0.76 65 994.3
20260507205057 13 270 8.0 24.1 0.00 0.00 0.76 64 994.5
20260507204547 13 203 8.0 24.1 0.00 0.00 0.76 65 994.2
20260507204037 13 248 6.4 20.9 0.00 0.00 0.76 66 994.3
20260507203528 13 225 6.4 24.1 0.00 0.00 0.76 66 994.2
20260507203016 13 270 6.4 24.1 0.00 0.00 0.76 66 994.6
20260507202507 13 270 8.0 25.7 0.00 0.00 0.76 66 994.6
20260507201446 13 225 9.7 25.7 0.00 0.00 0.76 66 994.7
20260507200936 14 203 12.9 32.2 0.00 0.00 0.76 66 994.2
20260507200427 14 270 16.1 32.2 0.00 0.00 0.76 65 994.0
20260507195406 14 135 11.3 27.4 0.00 0.00 0.76 66 993.9
20260507194856 14 203 12.9 32.2 0.00 0.00 0.76 66 993.8
20260507194346 14 225 12.9 32.2 0.00 0.00 0.76 65 993.6
20260507193836 14 248 8.0 25.7 0.00 0.00 0.76 66 993.5
20260507193326 14 248 12.9 27.4 0.00 0.00 0.76 65 993.3
20260507192816 14 248 12.9 27.4 0.00 0.00 0.76 66 993.2
20260507192306 14 315 12.9 32.2 0.00 0.00 0.76 65 992.9
20260507191755 14 203 19.3 32.2 0.00 0.00 0.76 64 992.8
20260507191245 14 203 17.7 29.0 0.00 0.00 0.76 64 992.7
20260507190735 14 248 8.0 22.5 0.00 0.00 0.76 65 992.9
20260507190225 14 248 11.3 27.4 0.00 0.00 0.76 66 993.1
20260507184654 14 248 11.3 29.0 0.00 0.00 0.76 64 993.2
20260507184145 15 180 16.1 29.0 0.00 0.00 0.76 62 993.0
20260507183634 15 315 12.9 29.0 0.00 0.00 0.76 62 993.3
20260507183124 15 293 12.9 29.0 0.00 0.00 0.76 61 993.4
20260507182624 15 248 17.7 29.0 0.00 0.00 0.76 61 993.5
20260507182101 15 270 9.7 25.7 0.00 0.00 0.76 60 994.1
20260507180534 15 338 11.3 25.7 0.00 0.00 0.76 60 994.3
20260507180024 15 180 14.5 25.7 0.00 0.00 0.76 59 994.5